{"data":{"norad_id":67249,"intl_designator":"2025-313B","name":"2025-313B","alt_names":[],"object_type":"PAYLOAD","status":"ACTIVE","operator":null,"country":"TBD","launch_date":"2025-12-28","launch_site_code":"VOSTO","launch_vehicle":null,"mission":null,"orbit_class":"UNKNOWN","rcs_meters":null,"size_class":null,"mass_kg":null,"dimensions":null,"purposes":[],"wikipedia_slug":null,"has_3d_model":false,"image_url":null,"decayed_at":null,"tle_current":{"epoch":"2026-09-19T23:20:49.546752Z","epoch_age_seconds":148593,"freshness":"FRESH","line1":"1 67249U 25313B   26262.97279568  .00001657  00000+0  12858-3 0  9998","line2":"2 67249  97.5013 321.6088 0291700  27.1337 334.4782 14.74702379 39103","mean_motion":14.74702379,"eccentricity":0.02917,"inclination_deg":97.5013,"raan_deg":321.6088,"arg_perigee_deg":27.1337,"mean_anomaly_deg":334.4782,"bstar":0.00012858,"rev_number":3910,"period_min":97.646821521809,"perigee_km":441.19930685641,"apogee_km":850.99307110144,"semimajor_km":7024.2331889789,"source":"CELESTRAK","updated_at":"2026-09-21T09:00:16.510861Z"}}}